STARLINK-11468, 62221

Orbit data source: Space-Track

STARLINK-11468, 62221 is a payload satellite owned by SpaceX/Seattle (US) in LEO that was launched on Thu, 05 Dec 2024 UTC via an FALCON 9 launch vehicle from the Air Force Western Test Range (AFWTR). Payload-class satellites include a variety of spacecraft equipped with specific instruments for various scientific and technological missions. These include communications satellites like Starlink; space stations such as the ISS; scientific satellites like the Hubble; Earth observation satellites from companies like Planet Labs, Umbra, and HawkEye 360; GPS; miniature CubeSats for education and research; and military/defense satellites.

Loading next visibility...
Identifier
62221, 2024-231D
Orbit
LEO
Country
Flag of USUS
Related business
Manufacturer
SpaceX/Seattle
Mission
Operational Commercial Communications
Bus & Motor
STARLINK V2MD, Unknown motor
Mass
960 kg wet, ~910 kg dry
Launch date (UTC)
2024-12-05 (9 months ago)
Launch vehicle
FALCON 9
Launch site
Air Force Western Test Range (AFWTR)
Object type
Payload
Rocket body
Debris
Shape & HBR
Box + 2 Pan, 14.5 m
Radar Cross Section
36.964 m², Large (>1 m²)

Expand to show TLE details & history
Last TLE update: 20 hours ago

TLE from 20 hours ago
0 STARLINK-11468
1 62221U 24231D   25257.55580987  .00153604  00000-0  12468-2 0  9995
2 62221  53.1577 249.8381 0001203  95.3195 264.7960 15.69760129 45746
Epoch: 2025-09-14T13:20Z
TLE epoch observation values (Epoch: 2025-09-14T13:20:21.972Z)
Latitude
-0.00005°
Longitude
55.97338°
Altitude
360.572 km
Speed
7.694 km/s
True Right ascension
16h 39m 21s
True Declination
0° 00' 00"
Sunlit
Object was in daylight at epoch
Visualization orbit readout
Latitude
Unknown
Longitude
Unknown
Altitude
Unknown
Speed
Unknown
Apparent Right ascension
Unknown
Apparent Declination
Unknown
Sunlit
N/A
Visualization observer readout
Local Sidereal Time
02:14:57
Azimuth
Unknown
Elevation
Unknown
Doppler factor
Unknown
Orbital elements
Apogee altitude
360.655 km
Perigee altitude
359.034 km
Semi-major axis
6,737.981 km
Eccentricity
0.00012
Inclination
53.1577°
RAAN
249.8381°
Arg. of periapsis
95.3195°
True anomaly
264.78227°
Mean anomaly
264.796°
Eccentric anomaly
264.78914°
Mean motion
3.92418 °/min
Orbital period
91.74 mins
BSTAR
0.0012468
Loading maneuver chart data...
Computing Atmospheric mass density...
Loading historical data...
Loading historical data...
Loading historical data...
Loading historical data...
Loading historical data...
Loading historical data...
Loading historical data...

Documentation

Showing up to 5 results
|